timestamp,surface_pressure_avg,surface_temp_avg,battery_voltage,lat,long
2022-11-19 00:09:01+00:00,272.2231,7.98,12.65,47.84626,-54.09684
2022-11-19 00:19:00+00:00,267.6914,7.9,12.65,47.84626,-54.09684
2022-11-19 00:29:00+00:00,262.7614,7.86,12.65,47.84626,-54.09684
2022-11-19 00:39:00+00:00,257.2814,7.87,12.65,47.84626,-54.09684
2022-11-19 00:49:00+00:00,254.4198,7.9,12.65,47.84626,-54.09684
2022-11-19 00:59:00+00:00,254.9615,7.9,12.65,47.84626,-54.09684
2022-11-19 01:09:00+00:00,254.1264,8.0,12.65,47.84626,-54.09684
2022-11-19 01:19:01+00:00,249.4281,8.0,12.65,47.84626,-54.09684
2022-11-19 01:29:01+00:00,250.3647,8.0,12.65,47.84626,-54.09684
2022-11-19 01:39:01+00:00,255.0748,7.94,12.65,47.84626,-54.09684
2022-11-19 01:49:01+00:00,255.0131,8.0,12.65,47.84626,-54.09684
2022-11-19 01:59:01+00:00,247.8098,8.0,12.65,47.84626,-54.09684
2022-11-19 02:09:01+00:00,249.3181,8.0,12.65,47.84626,-54.09684
2022-11-19 02:19:00+00:00,253.3248,8.0,12.65,47.84626,-54.09684
2022-11-19 02:29:00+00:00,250.9231,8.0,12.65,47.84626,-54.09684
2022-11-19 02:39:00+00:00,247.9847,8.0,12.65,47.84626,-54.09684
2022-11-19 02:49:00+00:00,253.8914,8.07,12.65,47.84626,-54.09684
2022-11-19 02:59:00+00:00,258.0497,8.13,12.65,47.84626,-54.09684
2022-11-19 03:09:00+00:00,253.1814,8.19,12.65,47.84626,-54.09684
2022-11-19 03:19:00+00:00,253.0448,8.18,12.65,47.84626,-54.09684
2022-11-19 03:29:00+00:00,262.778,8.2,12.65,47.84626,-54.09684
2022-11-19 03:39:00+00:00,265.643,8.27,12.65,47.84626,-54.09684
2022-11-19 03:49:00+00:00,262.4315,8.3,12.65,47.84626,-54.09684
2022-11-19 03:59:00+00:00,266.8347,8.3,12.65,47.84626,-54.09684
2022-11-19 04:09:00+00:00,276.6481,8.31,12.65,47.84626,-54.09684
2022-11-19 04:19:00+00:00,277.5731,8.4,12.65,47.84626,-54.09684
2022-11-19 04:29:00+00:00,278.2497,8.4,12.65,47.84626,-54.09684
2022-11-19 04:39:00+00:00,284.4097,8.42,12.65,47.84626,-54.09684
2022-11-19 04:49:00+00:00,290.8847,8.5,12.65,47.84626,-54.09684
2022-11-19 04:59:00+00:00,289.0847,8.5,12.65,47.84626,-54.09684
2022-11-19 05:09:00+00:00,292.4664,8.5,12.65,47.84626,-54.09684
2022-11-19 05:19:00+00:00,299.6064,8.49,12.65,47.84626,-54.09684
2022-11-19 05:29:00+00:00,304.5997,8.4,12.65,47.84626,-54.09684
2022-11-19 05:39:00+00:00,302.7764,8.46,12.65,47.84626,-54.09684
2022-11-19 05:49:00+00:00,311.803,8.4,12.65,47.84626,-54.09684
2022-11-19 05:59:00+00:00,318.6597,8.4,12.65,47.84626,-54.09684
2022-11-19 06:09:00+00:00,318.3747,8.3,12.65,47.84626,-54.09684
2022-11-19 06:19:00+00:00,318.3696,8.2,12.65,47.84626,-54.09684
2022-11-19 06:29:00+00:00,327.6747,8.2,12.65,47.84626,-54.09684
2022-11-19 06:39:00+00:00,335.0046,8.5,12.65,47.84626,-54.09684
2022-11-19 06:49:00+00:00,332.3297,8.49,12.65,47.84626,-54.09684
2022-11-19 06:59:00+00:00,330.1931,8.2,12.65,47.84626,-54.09684
2022-11-19 07:09:00+00:00,335.7029,8.51,12.65,47.84626,-54.09684
2022-11-19 07:19:01+00:00,337.5464,8.5,12.65,47.84626,-54.09684
2022-11-19 07:29:01+00:00,337.92800000000005,8.5,12.65,47.84626,-54.09684
2022-11-19 07:39:01+00:00,339.0113,8.49,12.65,47.84626,-54.09684
2022-11-19 07:49:01+00:00,339.3446,8.5,12.65,47.84626,-54.09684
2022-11-19 07:59:01+00:00,338.55800000000005,8.5,12.65,47.84626,-54.09684
2022-11-19 08:09:01+00:00,335.598,8.4,12.65,47.84626,-54.09684
2022-11-19 08:19:00+00:00,333.023,7.57,12.57,47.84626,-54.09684
2022-11-19 08:29:00+00:00,331.1479,8.45,12.57,47.84626,-54.09684
2022-11-19 08:39:00+00:00,328.093,8.53,12.57,47.84626,-54.09684
2022-11-19 08:49:00+00:00,322.7014,8.5,12.57,47.84626,-54.09684
2022-11-19 08:59:00+00:00,317.2547,8.5,12.57,47.84626,-54.09684
2022-11-19 09:09:00+00:00,317.043,8.5,12.57,47.84626,-54.09684
2022-11-19 09:19:00+00:00,312.9197,8.5,12.57,47.84626,-54.09684
2022-11-19 09:29:00+00:00,305.313,8.6,12.57,47.84626,-54.09684
2022-11-19 09:39:00+00:00,301.5214,8.6,12.57,47.84626,-54.09684
2022-11-19 09:49:00+00:00,303.1497,8.6,12.57,47.84626,-54.09684
2022-11-19 09:59:00+00:00,304.8347,8.6,12.57,47.84626,-54.09684
2022-11-19 10:09:00+00:00,303.523,8.5,12.57,47.84626,-54.09684
2022-11-19 10:19:00+00:00,299.723,8.5,12.57,47.84626,-54.09684
2022-11-19 10:29:00+00:00,289.3564,8.5,12.57,47.84626,-54.09684
2022-11-19 10:39:00+00:00,282.2997,8.46,12.57,47.84626,-54.09684
2022-11-19 10:49:00+00:00,283.0214,8.45,12.57,47.84626,-54.09684
2022-11-19 10:59:00+00:00,282.9531,8.43,12.57,47.84626,-54.09684
2022-11-19 11:09:00+00:00,277.4914,8.4,12.57,47.84626,-54.09684
2022-11-19 11:19:00+00:00,273.588,8.4,12.73,47.84626,-54.09684
2022-11-19 11:29:00+00:00,273.0664,8.4,12.73,47.84626,-54.09684
2022-11-19 11:39:00+00:00,268.5281,8.4,12.73,47.84626,-54.09684
2022-11-19 11:49:00+00:00,263.3464,8.36,12.73,47.84626,-54.09684
2022-11-19 11:59:00+00:00,256.0614,8.31,12.73,47.84626,-54.09684
2022-11-19 12:09:00+00:00,250.5431,8.3,12.73,47.84626,-54.09684
2022-11-19 12:19:00+00:00,244.9314,8.2,12.73,47.84626,-54.09684
2022-11-19 12:29:00+00:00,241.3414,8.2,12.73,47.84626,-54.09684
2022-11-19 12:39:00+00:00,239.9581,8.2,12.73,47.84626,-54.09684
2022-11-19 12:49:00+00:00,243.7314,8.17,12.73,47.84626,-54.09684
2022-11-19 12:59:00+00:00,240.4631,8.18,12.73,47.84626,-54.09684
2022-11-19 13:09:00+00:00,237.3714,8.2,12.73,47.84626,-54.09684
2022-11-19 13:19:01+00:00,239.4698,8.23,12.73,47.84626,-54.09684
2022-11-19 13:29:01+00:00,236.7148,8.27,12.73,47.84626,-54.09684
2022-11-19 13:39:01+00:00,231.1764,8.2,12.73,47.84626,-54.09684
2022-11-19 13:49:01+00:00,234.4914,8.24,12.73,47.84626,-54.09684
2022-11-19 13:59:01+00:00,229.6331,8.25,12.73,47.84626,-54.09684
2022-11-19 14:09:01+00:00,222.9531,8.21,12.73,47.84626,-54.09684
2022-11-19 14:19:01+00:00,226.0847,8.2,12.97,47.84626,-54.09684
2022-11-19 14:29:01+00:00,230.0198,8.24,12.97,47.84626,-54.09684
2022-11-19 14:39:01+00:00,231.5515,8.25,12.97,47.84626,-54.09684
2022-11-19 14:49:01+00:00,234.3114,8.27,12.97,47.84626,-54.09684
2022-11-19 14:59:01+00:00,239.3215,8.29,12.97,47.84626,-54.09684
2022-11-19 15:09:01+00:00,240.7281,8.29,12.97,47.84626,-54.09684
2022-11-19 15:19:00+00:00,240.3464,8.29,13.05,47.84626,-54.09684
2022-11-19 15:29:00+00:00,241.2631,8.3,13.05,47.84626,-54.09684
2022-11-19 15:39:00+00:00,243.7281,8.3,13.05,47.84626,-54.09684
2022-11-19 15:49:00+00:00,242.7981,8.29,13.05,47.84626,-54.09684
2022-11-19 15:59:00+00:00,237.0214,8.2,13.05,47.84626,-54.09684
2022-11-19 16:09:00+00:00,238.5664,8.2,13.05,47.84626,-54.09684
2022-11-19 16:19:00+00:00,246.2614,8.2,13.92,47.84626,-54.09684
2022-11-19 16:29:00+00:00,246.5714,8.24,13.92,47.84626,-54.09684
2022-11-19 16:39:00+00:00,247.6231,8.3,13.92,47.84626,-54.09684
2022-11-19 16:49:00+00:00,261.5231,8.37,13.92,47.84626,-54.09684
2022-11-19 16:59:00+00:00,267.2098,8.33,13.92,47.84626,-54.09684
2022-11-19 17:09:00+00:00,266.7364,8.38,13.92,47.84626,-54.09684
2022-11-19 17:19:01+00:00,266.1581,8.4,13.76,47.84626,-54.09684
2022-11-19 17:29:01+00:00,276.478,8.45,13.76,47.84626,-54.09684
2022-11-19 17:39:01+00:00,281.0064,8.5,13.76,47.84626,-54.09684
2022-11-19 17:49:01+00:00,286.2331,8.4,13.76,47.84626,-54.09684
2022-11-19 17:59:01+00:00,288.9264,8.45,13.76,47.84626,-54.09684
2022-11-19 18:09:01+00:00,296.133,8.5,13.76,47.84626,-54.09684
2022-11-19 18:19:01+00:00,300.883,8.51,13.21,47.84626,-54.09684
2022-11-19 18:29:01+00:00,303.7363,8.56,13.21,47.84626,-54.09684
2022-11-19 18:39:01+00:00,309.408,8.59,13.21,47.84626,-54.09684
2022-11-19 18:49:01+00:00,315.6047,8.6,13.21,47.84626,-54.09684
2022-11-19 18:59:01+00:00,322.183,8.6,13.21,47.84626,-54.09684
2022-11-19 19:09:01+00:00,324.6414,8.6,13.21,47.84626,-54.09684
2022-11-19 19:19:01+00:00,327.2097,8.6,13.05,47.84626,-54.09684
2022-11-19 19:29:01+00:00,331.5914,8.6,13.05,47.84626,-54.09684
2022-11-19 19:39:01+00:00,332.8663,8.6,13.05,47.84626,-54.09684
2022-11-19 19:49:01+00:00,332.9346,8.6,13.05,47.84626,-54.09684
2022-11-19 19:59:01+00:00,334.5596,8.6,13.05,47.84626,-54.09684
2022-11-19 20:09:01+00:00,333.0746,8.6,13.05,47.84626,-54.09684
2022-11-19 20:19:01+00:00,339.4797,8.6,12.81,47.84626,-54.09684
2022-11-19 20:29:01+00:00,342.3214,8.6,12.81,47.84626,-54.09684
2022-11-19 20:39:01+00:00,340.8947,8.6,12.81,47.84626,-54.09684
2022-11-19 20:49:01+00:00,339.6562,8.6,12.81,47.84626,-54.09684
2022-11-19 20:59:01+00:00,338.0513,8.6,12.81,47.84626,-54.09684
2022-11-19 21:09:01+00:00,340.778,8.6,12.81,47.84626,-54.09684
2022-11-19 21:19:01+00:00,342.918,8.6,12.73,47.84626,-54.09684
2022-11-19 21:29:01+00:00,336.3763,8.6,12.73,47.84626,-54.09684
2022-11-19 21:39:01+00:00,332.858,8.5,12.73,47.84626,-54.09684
2022-11-19 21:49:01+00:00,336.4646,8.37,12.73,47.84626,-54.09684
2022-11-19 21:59:01+00:00,331.0496,8.3,12.73,47.84626,-54.09684
2022-11-19 22:09:01+00:00,319.3346,8.22,12.73,47.84626,-54.09684
2022-11-19 22:19:00+00:00,323.793,8.26,12.65,47.84626,-54.09684
2022-11-19 22:29:00+00:00,324.4313,8.4,12.65,47.84626,-54.09684
2022-11-19 22:39:00+00:00,310.6165,8.0,12.65,47.84626,-54.09684
2022-11-19 22:49:00+00:00,302.8347,8.22,12.65,47.84626,-54.09684
2022-11-19 22:59:00+00:00,304.7897,8.4,12.65,47.84626,-54.09684
2022-11-19 23:09:00+00:00,299.483,8.4,12.65,47.84626,-54.09684
2022-11-19 23:19:00+00:00,286.563,8.3,12.65,47.84626,-54.09684
2022-11-19 23:29:00+00:00,283.4847,8.28,12.65,47.84626,-54.09684
2022-11-19 23:39:00+00:00,282.488,8.45,12.65,47.84626,-54.09684
2022-11-19 23:49:00+00:00,272.0414,8.5,12.65,47.84626,-54.09684
2022-11-19 23:59:00+00:00,261.5164,8.4,12.65,47.84626,-54.09684
